Location: Fain
(47.5835°N, 4.2119°E)
Time: 11:51:03
(UTC+00:00)

Daily predictions for brighter satellites

Satellite Brightness Start Highest point End
(mag) Time Altitude Azimuth Time Altitude Azimuth Time Altitude Azimuth
Cosmos 1980 4.2 16:19:43 10° SW 16:25:21 64° WNW 16:31:01 10° NNE
NOAA 6 4.0 16:21:16 10° SSE 16:26:21 65° ENE 16:31:27 10° N
Okean O Rocket 2.3 16:22:34 10° SE 16:26:29 33° ENE 16:30:26 10° N
Cosmos 1782 4.4 16:24:35 10° ESE 16:27:01 16° E 16:29:27 10° NE
ISS -3.0 16:26:15 10° WNW 16:29:28 41° N 16:32:41 10° ENE
Cosmos 1633 Rocket 3.5 16:26:00 10° N 16:30:07 38° ENE 16:34:11 10° SE
H-2A R/B 2.8 16:27:00 10° SSE 16:30:51 88° W 16:34:46 10° NNW
Cosmos 1933 4.0 16:28:45 10° SSE 16:32:28 36° E 16:36:13 10° NNE
Spot 2 4.4 16:28:24 10° SSE 16:33:09 90° E 16:38:12 10° NNW
Meteor 2-12 Rocket 4.4 16:28:08 10° N 16:34:18 73° ENE 16:40:24 10° SSE
Nadezhda 1 Rocket 4.3 16:28:19 10° SSW 16:34:42 80° W 16:41:09 10° N
Cosmos 2218 Rocket 4.3 16:30:39 10° N 16:36:31 44° ENE 16:42:21 10° SE
Cosmos 2366 rocket 4.3 16:31:37 10° N 16:37:29 43° ENE 16:43:17 10° SE
Meteor 1-25 Rocket 4.4 16:32:50 10° N 16:38:22 52° ENE 16:43:54 10° SSE
ERS-2 4.0 16:36:35 10° ENE 16:38:34 14° E 16:40:33 10° SE
Cosmos 1867 3.7 16:33:07 10° SW 16:38:35 82° NW 16:44:05 10° NE
Envisat 3.0 16:37:30 10° SSE 16:42:36 89° ENE 16:47:42 10° NNW
Lacrosse 5 rocket 1.0 16:43:17 10° SW 16:46:58 80° NW 16:50:15 12° NE
Cosmos 773 Rocket 4.3 16:43:29 10° S 16:48:33 50° ESE 16:53:41 10° NNE
YAOGAN 6 2.6 16:48:02 10° SSE 16:51:39 88° WSW 16:55:16 10° NNW
Cosmos 2297 4.0 16:48:16 10° NNW 16:53:57 76° WSW 16:59:39 10° SSE
Cosmos 1606 3.0 16:50:14 10° SSW 16:54:07 72° W 16:58:00 10° N
AQUARIUS 4.1 16:52:23 10° SSE 16:56:49 65° ENE 17:01:18 10° N
FengYun 1-2 T 4.3 16:51:31 10° SE 16:56:53 54° ENE 17:02:14 10° N
CZ-4B R/B 2.5 16:56:25 15° NE 16:58:14 23° E 17:00:50 10° SSE
SL-16 R/B 2.2 16:52:49 10° SSW 16:58:29 86° ESE 17:04:12 10° NNE
Landsat 5 3.7 16:54:56 10° NNE 16:59:25 84° WNW 17:03:56 10° SSW
BREEZE-M DEB (TANK) 2.2 16:59:50 10° SW 17:02:23 45° SSE 17:03:26 21° E
USA 215 4.5 16:59:20 13° ENE 17:03:41 24° SE 17:08:45 10° S
Cosmos 1500 4.3 17:02:32 10° NNE 17:05:38 23° ENE 17:08:42 10° SE
SMAP 3.0 17:01:10 10° SSE 17:05:50 89° ENE 17:10:31 10° NNW
Sich 1 4.2 17:03:31 10° NNW 17:07:43 47° W 17:11:51 10° SSW
YAOGAN 1 3.9 17:09:18 18° ENE 17:09:47 18° ENE 17:12:46 10° NNE
Cosmos 1656 Rocket 4.2 17:04:43 10° NNW 17:09:56 36° NE 17:15:03 10° ESE
CZ-4C R/B 3.9 17:06:53 10° N 17:10:26 52° WNW 17:13:57 10° SSW
Cosmos 1151 Rocket 2.9 17:08:16 10° S 17:12:32 79° E 17:16:48 10° NNE
Cosmos 1470 Rocket 3.5 17:08:24 10° N 17:12:42 59° ENE 17:16:58 10° SSE
CSL-04 DEB 4.4 17:10:56 10° NNE 17:15:06 75° ESE 17:19:21 10° S
Cosmos 864 Rocket 4.5 17:12:12 10° N 17:18:33 81° E 17:24:48 10° S
Cosmos 2263 4.3 17:13:25 10° NNW 17:18:55 51° ENE 17:24:20 10° SE
Cosmos 1515 Rocket 3.7 17:16:20 10° SSE 17:20:33 49° E 17:24:50 10° NNE
CZ-2C R/B 3.6 17:17:27 10° SE 17:21:43 30° ENE 17:25:52 10° N
SL-8 Rocket 4.2 17:15:30 10° NNW 17:21:45 77° W 17:28:01 10° S
TIMED 4.4 17:19:39 10° SSW 17:24:00 76° ESE 17:27:39 15° NNE
Cosmos 1238 Rocket 3.9 17:21:21 10° NNE 17:24:49 27° ENE 17:28:51 10° SE
COSMO-SKYMED 1 3.1 17:23:06 18° NE 17:25:55 37° E 17:29:57 10° SSE
TELKOM 3 3.3 17:23:22 10° WNW 17:26:02 48° N 17:26:18 45° NNE
X-37B 1.5 17:25:24 10° SW 17:28:24 39° SSE 17:29:28 29° ESE
USA 281 3.6 17:22:47 10° ESE 17:28:50 42° NE 17:34:56 10° NNW
SAR-Lupe-4 4.3 17:29:13 31° E 17:29:30 31° E 17:32:43 10° SSE
Nadezhda 3 Rocket 4.4 17:24:10 10° SSE 17:30:02 40° E 17:35:55 10° NNE
USA 81 4.3 17:26:04 10° N 17:31:21 72° W 17:36:36 10° S
Helios 1A Rocket 3.6 17:33:26 30° ENE 17:33:26 30° ENE 17:36:43 10° N
Cosmos 2228 Rocket 3.7 17:29:08 10° SSE 17:33:13 34° E 17:34:29 28° ENE
Meteor 1-4 Rocket 2.5 17:30:54 10° SSW 17:34:29 85° W 17:37:26 14° N
H-2A R/B 2.8 17:35:18 26° E 17:36:36 29° ENE 17:40:58 10° N
Cosmos 1812 3.5 17:33:34 10° SSE 17:36:35 32° ESE 17:36:35 32° ESE
Cosmos 1821 Rocket 4.1 17:31:20 10° N 17:37:27 53° ENE 17:43:37 10° SSE
USA 267 3.6 17:34:11 23° E 17:38:04 49° NNE 17:44:19 10° NW
Cosmos 1939 Rocket 2.6 17:35:10 10° SSE 17:39:02 72° ENE 17:42:58 10° N
Meteor 1-11 Rocket 4.3 17:35:06 10° N 17:40:26 37° ENE 17:45:50 10° SE
Cosmos 1328 Rocket 4.0 17:36:13 10° SSW 17:40:30 61° WNW 17:44:50 10° N
CZ-4 R/B 4.5 17:36:50 10° SSE 17:40:51 53° ENE 17:44:54 10° N
CZ-4 R/B 1.8 17:41:26 37° ENE 17:41:26 37° ENE 17:45:06 10° N
PSLV R/B 4.4 17:42:20 36° E 17:42:20 36° E 17:46:02 10° SSE
Cosmos 44 Rocket 3.5 17:37:24 10° NNW 17:42:28 53° NE 17:45:08 27° ESE
BREEZE-M DEB (TANK) 3.9 17:40:14 10° SSW 17:42:35 16° SSE 17:42:53 16° SSE
Cosmos 1933 Rocket 3.5 17:38:17 10° N 17:42:47 84° E 17:47:14 10° S
CSL-04 Rocket 4.3 17:44:04 30° ENE 17:44:07 30° ENE 17:48:41 10° N
Cosmos 1602 4.4 17:41:28 10° NNW 17:45:19 56° W 17:49:07 10° S
IRS-1C Rocket 4.0 17:40:10 10° SSE 17:45:24 71° ENE 17:50:41 10° N
SAR-Lupe-1 4.3 17:46:35 47° ESE 17:46:35 47° ESE 17:49:59 10° S
Lacrosse 4 Rocket 3.7 17:46:44 10° SSE 17:46:59 11° SSE 17:46:59 11° SSE
Cosmos 1680 Rocket 4.1 17:45:14 10° SSE 17:49:58 35° ESE 17:50:18 35° E
SKYMED 3 4.5 17:47:24 23° NNE 17:50:01 66° ESE 17:54:20 10° S
SL-24 R/B 3.7 17:49:33 50° ENE 17:50:05 56° E 17:53:40 10° S
Cosmos 2237 Rocket 4.3 17:46:04 10° W 17:50:14 21° NW 17:54:24 10° N
Cosmos 1603 3.6 17:48:30 10° SSW 17:54:05 67° ESE 17:56:56 29° NE
CZ-2D R/B 3.1 17:52:05 10° SSE 17:55:53 79° ENE 17:59:45 10° N
Cosmos 1943 3.2 17:51:52 10° SSW 17:57:27 64° ESE 17:59:58 33° NE
H-2A R/B 3.9 17:53:55 10° N 17:57:34 29° WNW 18:01:17 10° SW
Cosmos 2369 Rocket 2.6 17:53:02 10° NNW 17:58:41 65° WSW 18:04:14 10° SSE
Cosmos 1538 Rocket 4.2 17:54:14 10° SSW 17:59:35 73° WNW 18:03:44 18° NNE
Cosmos 1943 Rocket 3.6 17:54:39 10° NW 17:59:47 39° WSW 18:04:56 10° S
Meteor 1-5 Rocket 4.2 17:55:03 10° N 18:01:00 80° ENE 18:06:45 10° SSE
Okean O Rocket 3.7 17:59:05 10° SSW 18:02:51 28° W 18:06:40 10° NW
Cosmos 1782 3.8 17:59:06 10° SSW 18:02:55 45° WNW 18:06:45 10° N
Cosmos 1371 Rocket 4.3 17:58:55 10° NNW 18:03:40 44° NE 18:03:40 44° NE
Okean-O 2.5 17:59:51 10° SSE 18:04:15 68° ENE 18:08:40 10° N
ISS -2.8 18:03:21 10° WNW 18:05:55 41° NNW 18:05:55 41° NNW
ARGOS 4.0 18:08:32 33° NNE 18:08:32 33° NNE 18:12:02 10° N
CENTAUR R/B 3.0 18:02:16 10° S 18:07:34 37° ESE 18:07:44 37° ESE
Cosmos 2056 Rocket 4.0 18:05:06 10° NNW 18:09:29 42° NE 18:09:29 42° NE
Cosmos 2112 Rocket 4.4 18:05:30 10° S 18:09:53 43° ESE 18:09:53 43° ESE
ERS-2 3.0 18:10:45 27° N 18:12:23 48° WNW 18:15:55 10° SW
SKYMED 2 3.7 18:11:44 26° N 18:14:05 71° WNW 18:18:24 10° SSW
NOSS 3-2 (C) 3.8 18:10:28 10° S 18:15:10 39° SE 18:15:10 39° SE
Cosmos 1869 Rocket 3.4 18:13:01 10° N 18:17:32 80° E 18:17:48 76° SE
BREEZE-M DEB (TANK) 3.5 18:12:28 10° SW 18:19:59 51° SSE 18:19:59 51° SSE
Meteor 1-27 Rocket 4.2 18:16:20 10° S 18:20:11 40° SE 18:20:11 40° SE
Meteor 1-10 Rocket 4.1 18:20:28 10° S 18:26:06 88° ESE 18:28:49 32° NNE
Lacrosse 5 rocket 3.0 18:23:33 10° WNW 18:25:53 22° NNW 18:25:53 22° NNW
Cosmos 1624 Rocket 4.3 18:21:43 10° NNW 18:25:55 50° NNE 18:25:55 50° NNE
Cosmos 371 Rocket 3.8 18:24:24 10° NNW 18:28:00 48° N 18:28:00 48° N
CZ-4B R/B 3.7 18:29:34 18° NW 18:30:22 20° WNW 18:32:45 10° WSW
NOSS 3-2 (A) 3.2 18:35:05 10° SW 18:40:47 88° SE 18:41:27 73° NE
SL-16 R/B 4.3 18:39:08 10° W 18:43:23 21° NW 18:46:58 12° N
Cosmos 1535 Rocket 4.3 18:38:49 10° N 18:44:59 89° E 18:51:06 10° S
YAOGAN 1 3.5 18:46:28 44° NW 18:46:28 44° NW 18:49:46 10° NNW
USA 215 3.1 18:46:42 70° E 18:47:23 77° SE 18:53:56 10° SW
MOS 1 Rocket 3.9 18:52:44 54° NNW 18:53:44 66° WNW 18:59:03 10° SSW
USA 238 DEB 3.5 18:53:33 10° SW 19:00:10 82° NW 19:00:35 78° N
USA 238 3.5 18:53:39 10° SW 19:00:16 83° NW 19:00:39 79° N
CZ-2C R/B 4.3 18:56:56 10° SSW 19:01:32 37° W 19:06:00 10° NNW
X-37B 4.2 19:01:41 10° W 19:01:44 10° W 19:01:44 10° W
Cosmos 1934 Rocket 4.4 19:00:37 10° NNW 19:06:53 61° W 19:13:03 10° S
USA 281 4.0 19:06:57 10° S 19:13:14 48° WSW 19:19:36 10° NW
H-2A R/B 3.1 19:15:55 43° W 19:15:55 43° W 19:20:46 10° NNW
CZ-4 R/B 3.9 19:17:28 19° WNW 19:17:28 19° WNW 19:19:36 10° NW
USA 267 3.3 19:21:32 71° W 19:21:32 71° W 19:27:26 10° NW
CENTAUR R/B 4.0 19:51:56 10° WSW 19:54:58 31° WSW 19:54:58 31° WSW
